Location: Drummondville
(45.8830°N, 72.4830°W)
Time: 09:57:00
(UTC-05:00)

Envisat - Pass Details

Date: 16 November 2017
Orbit: 764 x 766 km, 98.2° (Epoch: 22 November)

Event Time Altitude Azimuth Distance (km) Brightness Sun altitude
Exits shadow 19:01:27 13° 360° (N) 2,080 5.2 -28.4°
Drops below altitude 10° 19:02:04 10° 357° (N) 2,312 5.5 -28.6°
Sets 19:04:26 0° 352° (N) 3,242 6.4 -29.0°
